Lid_Strength_Index
0 0 -0 0 0 0 0 -0 -1 -1 -1 -1 -1 -1 -1 -0 -0 -0 -0 1 1 0
0 0 0 0 -1 -0 -1 -0 -0 -1 -1 -1 -1 -1 -1 -0 -0 -0 -0 0 1 1
0 -0 -1 -1 0 -0 -0 -0 -0 -0 -0 -0 -1 -1 -0 -0 -0 0 0 -0 1 1
-0 -0 -0 -0 -0 -0 -0 -0 -0 -0 -0 -0 -0 -0 -0 -0 0 0 0 0 1 1
0 -0 0 0 0 -0 0 -0 -0 -0 0 0 -0 -0 0 0 0 1 1 1 1 1
1 0 0 0 0 -0 -0 -0 -0 -0 0 0 0 0 0 0 0 1 0 1 1 1
1 1 0 0 0 0 -0 0 0 0 0 0 0 0 0 0 0 0 0 0 0 0
0 0 0 0 0 0 0 0 0 1 0 0 0 0 0 0 0 1 1 0 0 0
1 1 0 0 0 0 0 0 0 1 1 1 1 6 5 2 1 1 1 1 1 0
1 1 1 1 1 1 1 0 1 1 1 1 0 8 7 5 0 1 1 0 1 1
1 1 1 1 1 0 0 1 1 1 1 1 1 8 7 7 0 1 1 0 0 1
1 1 1 1 1 0 1 1 1 1 1 1 1 9 7 3 1 1 1 1 2 2
1 1 1 1 1 0 0 1 1 2 1 4 2 9 8 3 1 2 2 1 2 7
0 1 0 0 0 0 0 1 1 1 1 1 1 3 9 7 1 2 2 2 1 4